Вернуться в каталог

STARLINK-31797

АктивенСвязьVLEO
NORAD 59634·PAYLOAD·🇺🇸 United States

Запущен May 3, 2024 с Cape Canaveral Space Force Station

Loading…

Ближайшие Пролёты (ближайшие 24 часа)

TLE

СвежийSource: CelesTrak SupGP

Эпоха: Sep 15, 2026, 02:41 UTC

1 59634C 24082D   26258.11229167  .00035492  00000+0  12857-2 0  2580
2 59634  42.9998 149.9717 0001376 275.4820  46.3329 15.27555006    17

Отслеживайте STARLINK-31797 в реальном времени с AllMySat

Download on the App Store